Simultaneous Nadir Overpasses (SNOs) Predictions

Prediction of SNOs between METOP-B and NOAA-19 Satellite Orbit:

Table of predicted SNOs for the next 14.0 days since TLE Epoch: 7/12/2019
Index Date (METOP-B) Time (METOP-B) Lat,Lon (METOP-B) SZA (METOP-B ) Date (NOAA-19) Time (NOAA-19) Lat,Lon (NOAA-19) SZA (NOAA-19 ) Distance(km) Time Diff (sec)
1 07/16/2019 06:20:27 79.38, 101.60 58.33 07/16/2019 06:19:22 79.37, 101.50 58.30 2.69 65
2 07/16/2019 07:11:09 -79.35, -91.32 121.71 07/16/2019 07:10:25 -79.36, -91.17 121.70 3.16 44
3 07/16/2019 08:01:49 79.37, 76.15 58.33 07/16/2019 08:01:22 79.34, 76.23 58.30 3.47 27
4 07/16/2019 08:52:31 -79.34,-116.77 121.72 07/16/2019 08:52:26 -79.36,-116.72 121.69 2.95 5
5 07/16/2019 09:43:11 79.36, 50.70 58.32 07/16/2019 09:43:23 79.35, 50.68 58.31 0.94 12
6 07/16/2019 10:33:52 -79.36,-141.95 121.68 07/16/2019 10:34:26 -79.34,-142.00 121.69 2.31 34
7 07/16/2019 11:24:33 79.34, 25.25 58.31 07/16/2019 11:25:24 79.35, 25.12 58.33 2.87 51
8 07/16/2019 12:15:14 -79.34,-167.40 121.68 07/16/2019 12:16:27 -79.34,-167.56 121.68 3.21 73




NCC Satellite Simultaneous Nadir Overpasses (SNOs) Prediction Service
